| time (UTC) | temp C | wind direction | speed KPH | gust KPH | rain 1hr cm | rain 24hr cm | rain mn cm | humidity % | barometer mb |
| 20260906150157 | 31 | 216 | 6.4 | 11.3 | 0.00 | 0.00 | 0.00 | 48 | 1015.7 |
| 20260906145727 | 32 | 179 | 3.2 | 9.7 | 0.00 | 0.00 | 0.00 | 48 | 1015.7 |
| 20260906144837 | 31 | 129 | 6.4 | 9.7 | 0.00 | 0.00 | 0.00 | 48 | 1015.7 |
| 20260906144157 | 31 | 186 | 3.2 | 6.4 | 0.00 | 0.00 | 0.00 | 50 | 1015.7 |
| 20260906143729 | 31 | 176 | 4.8 | 9.7 | 0.00 | 0.00 | 0.00 | 51 | 1015.7 |
| 20260906143303 | 30 | 129 | 3.2 | 9.7 | 0.00 | 0.00 | 0.00 | 52 | 1015.7 |
| 20260906142410 | 30 | 155 | 3.2 | 8.0 | 0.00 | 0.00 | 0.00 | 52 | 1015.7 |
| 20260906141731 | 30 | 162 | 3.2 | 8.0 | 0.00 | 0.00 | 0.00 | 53 | 1015.7 |
| 20260906141046 | 29 | 88 | 4.8 | 8.0 | 0.00 | 0.00 | 0.00 | 55 | 1015.7 |
| 20260906140157 | 29 | 144 | 3.2 | 9.7 | 0.00 | 0.00 | 0.00 | 54 | 1015.7 |
| 20260906135517 | 29 | 194 | 4.8 | 8.0 | 0.00 | 0.00 | 0.00 | 54 | 1015.7 |
| 20260906135048 | 29 | 174 | 4.8 | 8.0 | 0.00 | 0.00 | 0.00 | 56 | 1015.7 |
| 20260906134157 | 28 | 232 | 3.2 | 3.2 | 0.00 | 0.00 | 0.00 | 57 | 1015.4 |
| 20260906133943 | 28 | 167 | 1.6 | 3.2 | 0.00 | 0.00 | 0.00 | 59 | 1015.4 |
| 20260906132837 | 27 | 338 | 0.0 | 3.2 | 0.00 | 0.00 | 0.00 | 63 | 1015.4 |
| 20260906132411 | 26 | 93 | 1.6 | 3.2 | 0.00 | 0.00 | 0.00 | 66 | 1015.4 |
| 20260906131517 | 26 | 266 | 1.6 | 3.2 | 0.00 | 0.00 | 0.00 | 70 | 1015.4 |
| 20260906130837 | 25 | 302 | 1.6 | 4.8 | 0.00 | 0.00 | 0.00 | 71 | 1015.4 |
| 20260906130157 | 24 | 71 | 1.6 | 4.8 | 0.00 | 0.00 | 0.00 | 74 | 1015.1 |
| 20260906125517 | 23 | 54 | 3.2 | 6.4 | 0.00 | 0.00 | 0.00 | 76 | 1015.1 |
| 20260906125305 | 23 | 51 | 3.2 | 4.8 | 0.00 | 0.00 | 0.00 | 77 | 1015.1 |
| 20260906124157 | 23 | 64 | 3.2 | 4.8 | 0.00 | 0.00 | 0.00 | 78 | 1015.1 |
| 20260906123730 | 22 | 70 | 3.2 | 4.8 | 0.00 | 0.00 | 0.00 | 78 | 1015.1 |
| 20260906123051 | 22 | 50 | 3.2 | 4.8 | 0.00 | 0.00 | 0.00 | 80 | 1015.1 |
| 20260906122407 | 22 | 57 | 1.6 | 3.2 | 0.00 | 0.00 | 0.00 | 80 | 1014.7 |
| 20260906121727 | 22 | 59 | 3.2 | 3.2 | 0.00 | 0.00 | 0.00 | 81 | 1014.7 |
| 20260906120837 | 22 | 54 | 1.6 | 3.2 | 0.00 | 0.00 | 0.00 | 81 | 1014.7 |
| 20260906120157 | 22 | 313 | 1.6 | 4.8 | 0.00 | 0.00 | 0.00 | 81 | 1014.7 |
| 20260906115517 | 22 | 284 | 1.6 | 3.2 | 0.00 | 0.00 | 0.00 | 82 | 1014.7 |
| 20260906114837 | 21 | 55 | 1.6 | 4.8 | 0.00 | 0.00 | 0.00 | 82 | 1014.7 |
| 20260906114410 | 22 | 67 | 1.6 | 4.8 | 0.00 | 0.00 | 0.00 | 81 | 1014.4 |
| 20260906113517 | 22 | 32 | 1.6 | 4.8 | 0.00 | 0.00 | 0.00 | 81 | 1014.4 |
| 20260906113300 | 22 | 51 | 1.6 | 3.2 | 0.00 | 0.00 | 0.00 | 80 | 1014.4 |
| 20260906112157 | 22 | 47 | 1.6 | 3.2 | 0.00 | 0.00 | 0.00 | 80 | 1014.4 |
| 20260906111517 | 22 | 48 | 1.6 | 4.8 | 0.00 | 0.00 | 0.00 | 79 | 1014.4 |
| 20260906110837 | 22 | 31 | 1.6 | 6.4 | 0.00 | 0.00 | 0.00 | 79 | 1014.4 |
| 20260906110409 | 22 | 66 | 3.2 | 4.8 | 0.00 | 0.00 | 0.00 | 79 | 1014.4 |
| 20260906105517 | 22 | 69 | 3.2 | 9.7 | 0.00 | 0.00 | 0.00 | 78 | 1014.4 |
| 20260906104837 | 23 | 61 | 4.8 | 11.3 | 0.00 | 0.00 | 0.00 | 76 | 1014.4 |
| 20260906104157 | 23 | 54 | 6.4 | 12.9 | 0.00 | 0.00 | 0.00 | 77 | 1014.0 |
| 20260906103517 | 22 | 29 | 6.4 | 11.3 | 0.00 | 0.00 | 0.00 | 82 | 1014.0 |
| 20260906102837 | 21 | 49 | 4.8 | 8.0 | 0.00 | 0.00 | 0.00 | 84 | 1014.0 |
| 20260906102157 | 21 | 60 | 4.8 | 6.4 | 0.00 | 0.00 | 0.00 | 83 | 1013.7 |
| 20260906101729 | 22 | 58 | 3.2 | 4.8 | 0.00 | 0.00 | 0.00 | 83 | 1013.7 |
| 20260906101049 | 22 | 37 | 3.2 | 6.4 | 0.00 | 0.00 | 0.00 | 83 | 1013.7 |
| 20260906100410 | 22 | 23 | 3.2 | 8.0 | 0.00 | 0.00 | 0.00 | 83 | 1013.7 |
| 20260906095517 | 22 | 48 | 4.8 | 8.0 | 0.00 | 0.00 | 0.00 | 83 | 1013.7 |
| 20260906094837 | 22 | 52 | 3.2 | 6.4 | 0.00 | 0.00 | 0.00 | 83 | 1013.7 |
| 20260906094157 | 22 | 49 | 4.8 | 6.4 | 0.00 | 0.00 | 0.00 | 82 | 1013.7 |
| 20260906093517 | 22 | 50 | 3.2 | 4.8 | 0.00 | 0.00 | 0.00 | 82 | 1013.7 |
| 20260906093048 | 22 | 53 | 3.2 | 4.8 | 0.00 | 0.00 | 0.00 | 82 | 1013.7 |
| 20260906092157 | 22 | 57 | 3.2 | 4.8 | 0.00 | 0.00 | 0.00 | 81 | 1013.7 |
| 20260906091517 | 22 | 56 | 1.6 | 4.8 | 0.00 | 0.00 | 0.00 | 81 | 1013.7 |
| 20260906091050 | 22 | 40 | 1.6 | 4.8 | 0.00 | 0.00 | 0.00 | 81 | 1013.7 |
| 20260906090157 | 22 | 21 | 3.2 | 8.0 | 0.00 | 0.00 | 0.00 | 81 | 1013.7 |
| 20260906085517 | 22 | 52 | 6.4 | 8.0 | 0.00 | 0.00 | 0.00 | 82 | 1013.7 |
| 20260906085047 | 22 | 42 | 3.2 | 8.0 | 0.00 | 0.00 | 0.00 | 82 | 1013.7 |
| 20260906084157 | 22 | 52 | 6.4 | 8.0 | 0.00 | 0.00 | 0.00 | 82 | 1013.3 |
| 20260906083728 | 22 | 51 | 4.8 | 6.4 | 0.00 | 0.00 | 0.00 | 81 | 1013.3 |
| 20260906083049 | 22 | 47 | 4.8 | 6.4 | 0.00 | 0.00 | 0.00 | 81 | 1013.7 |
| 20260906082409 | 22 | 46 | 3.2 | 6.4 | 0.00 | 0.00 | 0.00 | 80 | 1013.7 |
| 20260906081517 | 23 | 56 | 3.2 | 4.8 | 0.00 | 0.00 | 0.00 | 79 | 1013.3 |
| 20260906080837 | 23 | 3 | 1.6 | 3.2 | 0.00 | 0.00 | 0.00 | 78 | 1013.7 |
| 20260906080157 | 23 | 355 | 1.6 | 3.2 | 0.00 | 0.00 | 0.00 | 79 | 1013.7 |
| 20260906075517 | 23 | 78 | 1.6 | 4.8 | 0.00 | 0.00 | 0.00 | 79 | 1013.7 |
| 20260906074837 | 23 | 22 | 3.2 | 4.8 | 0.00 | 0.00 | 0.00 | 80 | 1013.7 |
| 20260906074157 | 22 | 52 | 3.2 | 6.4 | 0.00 | 0.00 | 0.00 | 80 | 1013.7 |
| 20260906073517 | 23 | 44 | 3.2 | 6.4 | 0.00 | 0.00 | 0.00 | 79 | 1013.7 |
| 20260906072837 | 23 | 61 | 3.2 | 4.8 | 0.00 | 0.00 | 0.00 | 79 | 1013.7 |
| 20260906072157 | 23 | 56 | 1.6 | 3.2 | 0.00 | 0.00 | 0.00 | 78 | 1014.0 |
| 20260906071517 | 23 | 69 | 3.2 | 3.2 | 0.00 | 0.00 | 0.00 | 78 | 1014.0 |
| 20260906070837 | 23 | 34 | 1.6 | 3.2 | 0.00 | 0.00 | 0.00 | 78 | 1014.0 |
| 20260906070620 | 23 | 58 | 1.6 | 4.8 | 0.00 | 0.00 | 0.00 | 78 | 1014.0 |
| 20260906065517 | 23 | 60 | 3.2 | 6.4 | 0.00 | 0.00 | 0.00 | 78 | 1014.0 |
| 20260906064837 | 23 | 53 | 3.2 | 4.8 | 0.00 | 0.00 | 0.00 | 77 | 1014.0 |
| 20260906064157 | 23 | 63 | 3.2 | 4.8 | 0.00 | 0.00 | 0.00 | 76 | 1014.0 |
| 20260906063517 | 23 | 38 | 3.2 | 4.8 | 0.00 | 0.00 | 0.00 | 76 | 1014.0 |
| 20260906063050 | 23 | 52 | 3.2 | 6.4 | 0.00 | 0.00 | 0.00 | 76 | 1014.0 |
| 20260906062411 | 23 | 41 | 3.2 | 6.4 | 0.00 | 0.00 | 0.00 | 77 | 1014.0 |
| 20260906061726 | 23 | 47 | 4.8 | 8.0 | 0.00 | 0.00 | 0.00 | 77 | 1014.0 |
| 20260906060837 | 23 | 44 | 4.8 | 6.4 | 0.00 | 0.00 | 0.00 | 76 | 1014.0 |
| 20260906060157 | 23 | 46 | 3.2 | 6.4 | 0.00 | 0.00 | 0.00 | 76 | 1014.0 |
| 20260906055517 | 23 | 56 | 1.6 | 3.2 | 0.00 | 0.00 | 0.00 | 75 | 1014.0 |
| 20260906054837 | 23 | 67 | 3.2 | 3.2 | 0.00 | 0.00 | 0.00 | 75 | 1014.0 |
| 20260906054157 | 24 | 73 | 1.6 | 4.8 | 0.00 | 0.00 | 0.00 | 74 | 1014.4 |
| 20260906053943 | 24 | 82 | 1.6 | 6.4 | 0.00 | 0.00 | 0.00 | 74 | 1014.0 |
| 20260906053051 | 24 | 314 | 3.2 | 6.4 | 0.00 | 0.00 | 0.00 | 73 | 1014.0 |
| 20260906052157 | 24 | 354 | 1.6 | 6.4 | 0.00 | 0.00 | 0.00 | 74 | 1014.0 |
| 20260906051727 | 24 | 57 | 3.2 | 6.4 | 0.00 | 0.00 | 0.00 | 75 | 1014.0 |
| 20260906051048 | 24 | 57 | 4.8 | 8.0 | 0.00 | 0.00 | 0.00 | 74 | 1014.0 |
| 20260906050157 | 24 | 54 | 4.8 | 8.0 | 0.00 | 0.00 | 0.00 | 74 | 1014.0 |
| 20260906045729 | 24 | 48 | 3.2 | 6.4 | 0.00 | 0.00 | 0.00 | 74 | 1013.7 |
| 20260906044837 | 24 | 55 | 3.2 | 6.4 | 0.00 | 0.00 | 0.00 | 74 | 1013.7 |
| 20260906044410 | 24 | 47 | 4.8 | 6.4 | 0.00 | 0.00 | 0.00 | 73 | 1013.7 |
| 20260906043944 | 25 | 47 | 1.6 | 4.8 | 0.00 | 0.00 | 0.00 | 73 | 1013.7 |
| 20260906042837 | 25 | 56 | 3.2 | 6.4 | 0.00 | 0.00 | 0.00 | 72 | 1013.7 |
| 20260906042157 | 25 | 59 | 3.2 | 8.0 | 0.00 | 0.00 | 0.00 | 72 | 1013.7 |
| 20260906041517 | 25 | 34 | 4.8 | 8.0 | 0.00 | 0.00 | 0.00 | 70 | 1013.7 |
| 20260906040837 | 25 | 50 | 3.2 | 6.4 | 0.00 | 0.00 | 0.00 | 72 | 1014.0 |
| 20260906040409 | 25 | 61 | 3.2 | 8.0 | 0.00 | 0.00 | 0.00 | 71 | 1013.7 |
| 20260906035517 | 25 | 52 | 4.8 | 8.0 | 0.00 | 0.00 | 0.00 | 71 | 1013.7 |
| 20260906035050 | 25 | 50 | 3.2 | 8.0 | 0.00 | 0.00 | 0.00 | 70 | 1014.0 |
| 20260906034411 | 25 | 50 | 6.4 | 8.0 | 0.00 | 0.00 | 0.00 | 69 | 1013.7 |
| 20260906033517 | 26 | 47 | 3.2 | 4.8 | 0.00 | 0.00 | 0.00 | 69 | 1014.0 |
| 20260906032837 | 26 | 61 | 3.2 | 4.8 | 0.00 | 0.00 | 0.00 | 67 | 1014.0 |
| 20260906032157 | 26 | 35 | 1.6 | 4.8 | 0.00 | 0.00 | 0.00 | 65 | 1014.0 |
| 20260906031517 | 26 | 304 | 1.6 | 4.8 | 0.00 | 0.00 | 0.00 | 65 | 1013.7 |
| 20260906031049 | 26 | 50 | 3.2 | 6.4 | 0.00 | 0.00 | 0.00 | 66 | 1013.7 |
| 20260906030157 | 26 | 55 | 4.8 | 6.4 | 0.00 | 0.00 | 0.00 | 65 | 1014.0 |
| 20260906025517 | 27 | 66 | 3.2 | 4.8 | 0.00 | 0.00 | 0.00 | 64 | 1014.0 |
| 20260906024837 | 27 | 47 | 3.2 | 6.4 | 0.00 | 0.00 | 0.00 | 65 | 1013.7 |
| 20260906024407 | 27 | 60 | 3.2 | 6.4 | 0.00 | 0.00 | 0.00 | 62 | 1013.7 |
| 20260906023940 | 27 | 43 | 1.6 | 4.8 | 0.00 | 0.00 | 0.00 | 62 | 1013.7 |
| 20260906022837 | 27 | 59 | 4.8 | 4.8 | 0.00 | 0.00 | 0.00 | 61 | 1013.3 |
| 20260906022157 | 27 | 40 | 3.2 | 6.4 | 0.00 | 0.00 | 0.00 | 60 | 1013.3 |
| 20260906021729 | 27 | 67 | 3.2 | 9.7 | 0.00 | 0.00 | 0.00 | 60 | 1013.3 |
| 20260906020837 | 27 | 60 | 3.2 | 6.4 | 0.00 | 0.00 | 0.00 | 59 | 1013.3 |
| 20260906020157 | 28 | 56 | 4.8 | 6.4 | 0.00 | 0.00 | 0.00 | 58 | 1013.3 |
| 20260906015517 | 28 | 51 | 4.8 | 8.0 | 0.00 | 0.00 | 0.00 | 57 | 1013.0 |
| 20260906014837 | 29 | 58 | 6.4 | 9.7 | 0.00 | 0.00 | 0.00 | 53 | 1013.0 |
| 20260906014157 | 29 | 49 | 6.4 | 9.7 | 0.00 | 0.00 | 0.00 | 52 | 1013.0 |
| 20260906013517 | 30 | 66 | 3.2 | 6.4 | 0.00 | 0.00 | 0.00 | 50 | 1013.0 |
| 20260906012837 | 31 | 140 | 3.2 | 11.3 | 0.00 | 0.00 | 0.00 | 45 | 1013.0 |
| 20260906012157 | 30 | 160 | 4.8 | 8.0 | 0.00 | 0.00 | 0.00 | 49 | 1013.0 |
| 20260906011517 | 31 | 53 | 6.4 | 9.7 | 0.00 | 0.00 | 0.00 | 48 | 1012.6 |
| 20260906010837 | 31 | 53 | 6.4 | 9.7 | 0.00 | 0.00 | 0.00 | 46 | 1012.6 |
| 20260906010157 | 31 | 35 | 4.8 | 6.4 | 0.00 | 0.00 | 0.00 | 47 | 1012.6 |
| 20260906005517 | 31 | 61 | 3.2 | 6.4 | 0.00 | 0.00 | 0.00 | 47 | 1012.6 |
| 20260906005047 | 31 | 53 | 3.2 | 6.4 | 0.00 | 0.00 | 0.00 | 46 | 1012.6 |
| 20260906004157 | 32 | 42 | 3.2 | 6.4 | 0.00 | 0.00 | 0.00 | 43 | 1012.6 |
| 20260906003729 | 32 | 52 | 4.8 | 6.4 | 0.00 | 0.00 | 0.00 | 42 | 1012.6 |
| 20260906002837 | 33 | 68 | 4.8 | 8.0 | 0.00 | 0.00 | 0.00 | 42 | 1012.6 |
| 20260906002410 | 33 | 36 | 4.8 | 8.0 | 0.00 | 0.00 | 0.00 | 39 | 1012.6 |
| 20260906001517 | 33 | 63 | 4.8 | 8.0 | 0.00 | 0.00 | 0.00 | 38 | 1012.6 |
| 20260906000837 | 33 | 62 | 3.2 | 9.7 | 0.00 | 0.00 | 0.00 | 37 | 1012.6 |
| 20260906000157 | 34 | 65 | 6.4 | 9.7 | 0.00 | 0.00 | 0.00 | 36 | 1012.6 |
| 20260905235517 | 35 | 90 | 4.8 | 9.7 | 0.00 | 0.00 | 0.00 | 35 | 1012.6 |
| 20260905234837 | 35 | 71 | 6.4 | 9.7 | 0.00 | 0.00 | 0.00 | 33 | 1012.6 |
| 20260905234409 | 35 | 98 | 4.8 | 11.3 | 0.00 | 0.00 | 0.00 | 33 | 1012.6 |
| 20260905233517 | 35 | 94 | 6.4 | 11.3 | 0.00 | 0.00 | 0.00 | 32 | 1012.6 |
| 20260905232837 | 35 | 87 | 6.4 | 11.3 | 0.00 | 0.00 | 0.00 | 32 | 1012.6 |
| 20260905232410 | 36 | 72 | 6.4 | 12.9 | 0.00 | 0.00 | 0.00 | 30 | 1012.6 |
| 20260905231517 | 36 | 71 | 8.0 | 16.1 | 0.00 | 0.00 | 0.00 | 30 | 1012.6 |
| 20260905231047 | 37 | 93 | 4.8 | 14.5 | 0.00 | 0.00 | 0.00 | 29 | 1012.6 |
| 20260905230157 | 37 | 107 | 8.0 | 12.9 | 0.00 | 0.00 | 0.00 | 28 | 1012.3 |
| 20260905225517 | 38 | 87 | 4.8 | 6.4 | 0.00 | 0.00 | 0.00 | 27 | 1012.3 |
| 20260905225049 | 38 | 218 | 3.2 | 11.3 | 0.00 | 0.00 | 0.00 | 24 | 1012.3 |
| 20260905224157 | 38 | 224 | 4.8 | 11.3 | 0.00 | 0.00 | 0.00 | 25 | 1012.3 |
| 20260905223517 | 37 | 128 | 4.8 | 11.3 | 0.00 | 0.00 | 0.00 | 25 | 1012.3 |
| 20260905222837 | 37 | 149 | 4.8 | 12.9 | 0.00 | 0.00 | 0.00 | 25 | 1012.3 |
| 20260905222157 | 38 | 168 | 3.2 | 9.7 | 0.00 | 0.00 | 0.00 | 25 | 1012.3 |
| 20260905221517 | 38 | 185 | 4.8 | 12.9 | 0.00 | 0.00 | 0.00 | 25 | 1012.3 |
| 20260905220837 | 38 | 131 | 3.2 | 16.1 | 0.00 | 0.00 | 0.00 | 25 | 1012.3 |
| 20260905220157 | 38 | 177 | 6.4 | 16.1 | 0.00 | 0.00 | 0.00 | 26 | 1012.3 |
| 20260905215517 | 39 | 219 | 4.8 | 11.3 | 0.00 | 0.00 | 0.00 | 24 | 1012.3 |
| 20260905215049 | 38 | 234 | 6.4 | 11.3 | 0.00 | 0.00 | 0.00 | 24 | 1012.6 |
| 20260905214410 | 38 | 230 | 3.2 | 16.1 | 0.00 | 0.00 | 0.00 | 24 | 1012.6 |
| 20260905213517 | 38 | 222 | 6.4 | 14.5 | 0.00 | 0.00 | 0.00 | 24 | 1012.6 |
| 20260905213046 | 38 | 169 | 9.7 | 16.1 | 0.00 | 0.00 | 0.00 | 24 | 1012.6 |
| 20260905212407 | 38 | 201 | 6.4 | 16.1 | 0.00 | 0.00 | 0.00 | 25 | 1012.6 |
| 20260905211941 | 38 | 243 | 6.4 | 14.5 | 0.00 | 0.00 | 0.00 | 24 | 1012.6 |
| 20260905210837 | 38 | 316 | 1.6 | 11.3 | 0.00 | 0.00 | 0.00 | 23 | 1012.6 |
| 20260905210409 | 38 | 214 | 8.0 | 12.9 | 0.00 | 0.00 | 0.00 | 24 | 1012.6 |
| 20260905205517 | 38 | 221 | 3.2 | 11.3 | 0.00 | 0.00 | 0.00 | 24 | 1012.6 |
| 20260905205050 | 38 | 273 | 4.8 | 11.3 | 0.00 | 0.00 | 0.00 | 23 | 1013.0 |
| 20260905204157 | 39 | 325 | 3.2 | 9.7 | 0.00 | 0.00 | 0.00 | 23 | 1013.0 |
| 20260905203726 | 38 | 220 | 4.8 | 12.9 | 0.00 | 0.00 | 0.00 | 23 | 1013.3 |
| 20260905202837 | 38 | 161 | 4.8 | 12.9 | 0.00 | 0.00 | 0.00 | 24 | 1013.3 |
| 20260905202157 | 38 | 205 | 8.0 | 12.9 | 0.00 | 0.00 | 0.00 | 24 | 1013.3 |
| 20260905201728 | 38 | 139 | 4.8 | 11.3 | 0.00 | 0.00 | 0.00 | 24 | 1013.3 |
| 20260905200837 | 38 | 156 | 3.2 | 14.5 | 0.00 | 0.00 | 0.00 | 24 | 1013.7 |
| 20260905200157 | 38 | 126 | 6.4 | 16.1 | 0.00 | 0.00 | 0.00 | 24 | 1013.7 |
| 20260905195517 | 38 | 105 | 4.8 | 12.9 | 0.00 | 0.00 | 0.00 | 23 | 1013.7 |
| 20260905194837 | 38 | 195 | 8.0 | 12.9 | 0.00 | 0.00 | 0.00 | 23 | 1013.7 |
| 20260905194157 | 37 | 114 | 6.4 | 14.5 | 0.00 | 0.00 | 0.00 | 24 | 1014.0 |
| 20260905193727 | 37 | 204 | 8.0 | 14.5 | 0.00 | 0.00 | 0.00 | 24 | 1014.0 |
| 20260905193048 | 37 | 294 | 6.4 | 14.5 | 0.00 | 0.00 | 0.00 | 25 | 1014.0 |
| 20260905192157 | 38 | 290 | 6.4 | 14.5 | 0.00 | 0.00 | 0.00 | 24 | 1014.0 |
| 20260905191729 | 38 | 336 | 3.2 | 14.5 | 0.00 | 0.00 | 0.00 | 24 | 1014.4 |
| 20260905191303 | 38 | 246 | 4.8 | 9.7 | 0.00 | 0.00 | 0.00 | 24 | 1014.4 |
| 20260905190157 | 38 | 279 | 4.8 | 12.9 | 0.00 | 0.00 | 0.00 | 24 | 1014.4 |
| 20260905185517 | 38 | 243 | 4.8 | 12.9 | 0.00 | 0.00 | 0.00 | 25 | 1014.4 |
| 20260905184837 | 38 | 242 | 3.2 | 11.3 | 0.00 | 0.00 | 0.00 | 26 | 1014.4 |
| 20260905184407 | 37 | 296 | 4.8 | 17.7 | 0.00 | 0.00 | 0.00 | 27 | 1014.7 |
| 20260905183728 | 37 | 312 | 11.3 | 17.7 | 0.00 | 0.00 | 0.00 | 26 | 1014.7 |
| 20260905182837 | 37 | 228 | 8.0 | 12.9 | 0.00 | 0.00 | 0.00 | 27 | 1014.7 |
| 20260905182157 | 37 | 251 | 6.4 | 12.9 | 0.00 | 0.00 | 0.00 | 27 | 1015.1 |
| 20260905181517 | 37 | 249 | 3.2 | 9.7 | 0.00 | 0.00 | 0.00 | 28 | 1015.1 |
| 20260905180837 | 37 | 219 | 6.4 | 12.9 | 0.00 | 0.00 | 0.00 | 28 | 1015.1 |
| 20260905180624 | 37 | 231 | 8.0 | 12.9 | 0.00 | 0.00 | 0.00 | 29 | 1015.1 |
| 20260905175517 | 36 | 230 | 6.4 | 16.1 | 0.00 | 0.00 | 0.00 | 29 | 1015.1 |
| 20260905175047 | 36 | 300 | 11.3 | 16.1 | 0.00 | 0.00 | 0.00 | 31 | 1015.4 |
| 20260905174157 | 36 | 276 | 8.0 | 17.7 | 0.00 | 0.00 | 0.00 | 30 | 1015.4 |
| 20260905173517 | 36 | 293 | 9.7 | 16.1 | 0.00 | 0.00 | 0.00 | 32 | 1015.4 |
| 20260905173049 | 37 | 310 | 6.4 | 12.9 | 0.00 | 0.00 | 0.00 | 31 | 1015.4 |
| 20260905172157 | 36 | 240 | 3.2 | 9.7 | 0.00 | 0.00 | 0.00 | 31 | 1015.7 |
| 20260905171517 | 36 | 218 | 4.8 | 16.1 | 0.00 | 0.00 | 0.00 | 31 | 1015.7 |
| 20260905170837 | 36 | 280 | 8.0 | 16.1 | 0.00 | 0.00 | 0.00 | 32 | 1015.7 |
| 20260905170157 | 36 | 288 | 3.2 | 8.0 | 0.00 | 0.00 | 0.00 | 31 | 1015.7 |
| 20260905165517 | 35 | 63 | 3.2 | 16.1 | 0.00 | 0.00 | 0.00 | 32 | 1016.1 |
| 20260905165301 | 35 | 352 | 4.8 | 9.7 | 0.00 | 0.00 | 0.00 | 34 | 1016.1 |
| 20260905164408 | 35 | 73 | 3.2 | 12.9 | 0.00 | 0.00 | 0.00 | 34 | 1016.1 |
| 20260905163942 | 35 | 286 | 8.0 | 12.9 | 0.00 | 0.00 | 0.00 | 35 | 1016.1 |
| 20260905163050 | 35 | 267 | 6.4 | 16.1 | 0.00 | 0.00 | 0.00 | 34 | 1016.1 |
| 20260905162405 | 34 | 303 | 9.7 | 16.1 | 0.00 | 0.00 | 0.00 | 36 | 1016.1 |
| 20260905161939 | 35 | 332 | 6.4 | 14.5 | 0.00 | 0.00 | 0.00 | 36 | 1016.1 |
| 20260905160836 | 35 | 272 | 4.8 | 12.9 | 0.00 | 0.00 | 0.00 | 37 | 1016.1 |
| 20260905160156 | 34 | 302 | 3.2 | 12.9 | 0.00 | 0.00 | 0.00 | 37 | 1016.1 |
| 20260905155516 | 34 | 357 | 6.4 | 14.5 | 0.00 | 0.00 | 0.00 | 37 | 1016.1 |
| 20260905154836 | 33 | 351 | 9.7 | 16.1 | 0.00 | 0.00 | 0.00 | 39 | 1016.1 |
| 20260905154156 | 33 | 8 | 8.0 | 16.1 | 0.00 | 0.00 | 0.00 | 39 | 1016.1 |
| 20260905153516 | 33 | 320 | 8.0 | 17.7 | 0.00 | 0.00 | 0.00 | 40 | 1016.4 |
| 20260905153045 | 33 | 299 | 11.3 | 17.7 | 0.00 | 0.00 | 0.00 | 40 | 1016.1 |
| 20260905152406 | 33 | 318 | 9.7 | 17.7 | 0.00 | 0.00 | 0.00 | 40 | 1016.1 |
| 20260905151516 | 33 | 318 | 4.8 | 14.5 | 0.00 | 0.00 | 0.00 | 42 | 1016.4 |
| 20260905150836 | 32 | 298 | 8.0 | 19.3 | 0.00 | 0.00 | 0.00 | 42 | 1016.1 |